Probability
0 0 0 0 0 0 0 0 0 0 0 0 0 0 1 0 0 0 2 5 7 8 8 7 7 8 8 9 10 11 11 10 9 10 14 17 17 16 14 12 12 15 17
0 0 0 0 0 0 0 0 0 0 0 0 0 0 1 0 0 0 1 3 5 8 10 10 10 9 7 7 9 11 12 9 7 9 12 14 14 12 11 11 12 15 16
0 0 0 0 0 0 0 0 1 1 0 0 0 0 0 0 0 0 0 1 3 8 12 15 16 13 9 7 8 10 11 8 7 10 13 13 12 9 8 9 11 12 12
1 1 1 0 0 0 0 1 2 2 1 0 0 0 0 0 0 0 0 0 2 5 9 13 15 13 11 10 9 8 7 7 9 13 14 13 10 8 7 8 9 8 7
3 2 1 0 0 0 1 2 3 3 2 0 0 0 0 0 0 0 0 0 1 3 5 7 7 7 9 9 7 6 5 6 8 11 12 11 9 8 7 7 7 6 4
6 5 4 2 1 2 3 3 3 2 1 0 0 0 0 0 0 0 0 0 0 1 2 2 2 2 4 5 5 4 4 4 4 7 9 10 9 8 6 5 4 4 3
6 6 6 3 2 2 3 3 2 1 0 0 0 0 0 0 0 0 0 0 0 0 1 1 1 1 2 3 3 3 3 2 3 6 8 8 7 6 5 3 2 2 2
3 4 3 2 2 2 1 1 1 0 0 0 0 0 0 0 0 0 0 0 0 0 0 0 0 0 1 2 2 2 1 0 2 4 5 5 4 4 3 2 2 2 2
1 2 2 2 3 3 2 1 0 0 0 0 0 0 0 0 0 0 0 0 0 0 0 0 0 0 0 0 0 0 0 0 0 1 2 2 3 3 2 1 1 2 2
2 3 3 4 5 5 4 1 0 0 0 0 0 0 0 0 0 0 0 0 0 0 0 0 0 0 0 0 0 0 0 0 0 0 0 1 2 2 1 0 1 1 1
3 4 4 5 4 4 3 1 0 0 0 0 0 0 0 0 0 0 0 0 0 0 0 0 0 0 0 0 0 0 0 0 0 0 0 0 1 1 0 0 0 0 0
3 3 4 4 3 3 3 2 1 0 0 0 0 0 0 0 0 0 0 0 0 0 0 0 0 0 0 0 0 0 0 0 0 0 0 0 0 0 0 0 0 0 0
2 2 2 2 2 2 2 2 1 0 0 0 0 0 0 0 0 0 0 0 0 0 0 0 0 0 0 0 0 0 0 0 0 0 0 0 0 0 0 0 0 0 0
1 1 1 1 1 1 1 1 0 0 0 0 0 0 0 0 0 0 0 0 0 0 0 0 0 0 0 0 0 0 0 0 0 0 0 0 0 0 0 0 0 0 0
0 0 0 0 0 0 0 0 0 0 0 0 0 0 0 0 0 0 0 0 0 0 0 0 0 0 0 0 0 0 0 0 0 0 0 0 0 0 0 0 0 0 0
0 0 0 0 0 0 0 0 0 0 0 0 0 0 0 0 0 0 0 0 0 0 0 0 0 0 0 0 0 0 0 0 0 0 0 0 0 0 0 0 0 0 0
0 0 0 0 0 0 0 0 0 0 0 0 0 0 0 0 0 0 0 0 0 0 0 0 0 0 0 0 0 0 0 0 0 0 0 0 0 0 0 0 0 0 0
0 0 0 0 0 0 0 0 0 0 0 0 0 0 0 0 0 0 0 0 0 0 0 0 0 0 0 0 0 0 0 0 0 0 0 0 0 0 0 0 0 0 0
0 0 0 0 0 0 0 0 0 0 0 0 0 0 0 0 0 0 0 0 0 0 0 0 0 0 0 0 0 0 0 0 0 0 0 0 0 0 0 0 0 0 0
0 0 0 0 0 0 0 0 0 0 0 0 0 0 0 0 0 0 0 0 0 0 0 0 0 0 0 0 0 0 0 0 0 0 0 0 0 0 0 0 0 0 0
0 0 0 0 0 0 0 0 0 0 0 0 0 0 0 0 0 0 0 0 0 0 0 0 0 0 0 0 0 0 0 0 0 0 0 0 0 0 0 0 0 0 0
0 0 0 0 0 0 0 0 0 0 0 0 0 0 0 0 0 0 0 0 0 0 0 0 0 0 0 0 0 0 0 0 0 0 0 0 0 0 0 0 0 0 0
0 0 0 0 0 0 0 0 0 0 0 0 0 0 0 0 0 0 0 0 0 0 0 0 0 0 0 0 0 0 0 0 0 0 0 0 0 0 0 0 0 0 0
0 0 0 0 0 0 0 0 0 0 0 0 0 0 0 0 0 0 0 0 0 0 0 0 0 0 0 0 0 0 0 0 0 0 0 0 0 0 0 0 0 0 0
0 0 0 0 0 0 0 0 0 0 0 0 0 0 0 0 0 0 0 0 0 0 0 0 0 0 0 0 0 0 0 0 0 0 0 0 0 0 0 0 0 0 0
0 0 0 0 0 0 0 0 0 0 0 0 0 0 0 0 0 0 0 0 0 0 0 0 0 0 0 0 0 0 0 0 0 0 0 0 0 0 0 0 0 0 0
Wind_Speed
4 3 2 1 2 1 1 1 1 0 0 0 1 1 2 2 3 3 2 4 6 5 5 6 7 7 7 7 7 6 6 6 5 4 4 3 3 3 2 2 2 3 3
4 3 3 2 2 2 2 1 1 1 0 0 0 0 1 1 2 2 2 2 5 5 5 6 7 6 6 6 6 6 6 6 5 5 4 4 4 3 2 2 1 0 1
5 4 3 3 2 2 2 2 2 1 1 1 1 1 1 1 1 1 1 1 1 3 5 5 6 7 6 6 6 6 6 6 6 5 5 4 4 3 3 3 2 2 2
5 4 3 3 3 2 2 2 2 1 1 1 1 1 1 1 1 1 1 1 0 0 1 3 4 5 5 6 6 6 6 6 6 6 6 5 5 4 4 3 3 2 2
6 4 3 3 3 3 2 3 2 1 1 1 1 2 2 2 2 1 2 1 1 1 1 0 2 3 4 5 5 6 7 6 6 6 6 6 5 4 3 2 2 2 2
5 4 3 4 3 3 2 2 2 2 2 2 2 2 2 2 2 2 2 1 2 2 2 2 1 1 1 3 4 6 7 7 7 7 7 6 6 5 4 3 1 1 2
4 4 3 4 4 3 3 3 3 3 2 1 2 1 2 3 3 3 2 2 3 3 3 3 2 2 1 2 3 5 7 7 8 8 8 7 6 6 5 4 3 2 3
4 3 5 4 3 3 3 3 3 2 2 1 2 2 0 1 2 3 3 3 3 3 3 3 3 2 2 2 3 5 6 7 8 8 8 7 7 7 6 6 5 5 6
4 4 5 4 4 3 3 2 3 3 2 2 2 1 2 3 0 1 3 3 3 3 3 3 3 3 3 2 2 4 6 7 8 9 8 8 7 8 8 8 8 8 9
5 6 6 6 5 4 4 3 3 2 3 2 2 2 2 1 2 1 1 2 3 4 4 3 3 4 3 2 3 5 6 5 6 6 7 7 8 9 10 10 11 11 12
7 7 7 7 7 5 6 6 5 4 3 3 2 1 2 3 3 1 1 1 2 2 3 3 3 3 4 3 3 4 6 4 4 5 6 7 8 9 11 12 13 14 15
6 8 9 9 8 7 7 6 6 7 5 5 4 3 2 2 2 2 1 1 1 1 2 3 3 3 3 4 5 6 6 6 5 5 6 7 9 11 12 14 15 16 17
6 7 8 9 8 7 7 7 8 7 6 6 6 4 4 3 2 1 1 1 1 1 2 1 2 3 3 3 4 9 7 8 7 7 8 9 10 11 13 14 16 17 18
7 7 9 10 10 9 8 7 7 6 6 7 7 6 4 3 3 2 1 1 0 1 1 2 2 2 3 4 5 9 6 10 10 10 10 10 11 13 14 16 17 18 18
8 10 11 11 10 10 9 8 7 6 7 7 6 6 4 3 3 2 2 1 1 1 2 2 2 2 3 4 6 6 6 10 12 11 11 11 13 14 15 16 17 18 18
9 10 11 11 10 9 9 8 7 6 7 6 4 5 4 2 2 2 1 1 0 1 2 2 3 4 5 6 8 7 7 12 11 12 12 12 13 14 16 16 17 17 18
10 10 10 10 9 9 8 8 7 7 7 6 5 4 3 2 2 1 1 0 0 1 2 3 3 3 5 6 7 6 6 6 6 11 13 13 13 14 15 15 16 17 17
9 9 9 9 9 9 8 8 7 7 6 5 5 4 4 3 2 1 1 1 1 2 2 4 4 4 5 7 7 8 7 6 6 10 13 14 15 14 13 13 14 14 14
9 8 8 8 8 7 7 7 6 6 6 5 4 4 4 3 3 2 2 1 1 1 2 3 5 4 4 5 6 6 7 6 6 8 11 12 12 13 13 13 13 13 12
8 7 7 7 6 7 7 7 6 6 6 5 5 4 4 3 3 3 2 2 2 2 3 3 5 5 5 5 4 5 6 6 7 7 8 8 10 13 13 13 14 13 12
7 5 5 5 5 5 5 6 6 6 6 6 6 6 5 5 5 3 3 3 3 3 4 4 5 5 6 6 5 4 6 8 8 5 5 6 7 7 8 10 11 12 12
5 4 4 4 5 4 6 8 7 5 5 6 7 7 6 5 8 8 9 8 6 5 6 5 5 7 8 7 6 6 6 6 5 3 4 8 6 7 6 6 10 12 12
4 4 3 3 3 4 7 8 9 5 5 5 6 6 5 6 7 6 8 10 9 10 8 6 7 8 8 7 7 8 7 6 6 6 4 6 6 7 6 7 11 12 11
2 2 2 2 3 4 7 7 8 6 5 6 6 6 6 7 6 8 8 9 9 8 8 6 7 8 9 8 7 6 6 6 6 5 3 4 5 6 7 6 8 9 10
3 2 2 3 3 5 7 8 7 5 5 7 7 7 7 7 9 10 8 8 9 8 7 7 8 9 11 10 7 3 4 4 5 5 2 3 4 6 6 4 6 9 10
3 3 4 4 4 4 7 8 8 4 6 7 7 7 8 9 11 11 7 6 8 8 8 9 8 7 6 6 5 2 3 3 4 4 2 2 3 4 5 4 6 7 7
Wind_Direction
178 179 183 187 196 185 191 208 212 240 286 261 230 200 206 208 204 194 202 197 188 191 194 196 190 188 187 189 187 184 181 176 169 160 156 158 163 166 178 199 213 224 234
173 176 187 193 202 194 189 185 175 162 90 18 354 12 217 193 192 178 176 203 195 189 191 190 184 179 185 185 179 176 169 163 157 154 149 143 138 136 136 133 137 152 262
179 178 184 188 196 179 165 149 133 113 105 82 56 39 31 60 147 151 133 155 190 191 186 186 180 177 182 182 180 178 173 168 163 155 145 137 130 121 103 91 79 57 29
180 176 176 183 176 160 155 147 134 112 91 79 62 33 37 49 52 89 89 104 114 117 175 178 175 175 183 184 182 180 174 165 156 153 147 142 131 121 111 98 79 50 24
177 170 169 166 154 147 149 152 126 132 127 109 85 45 28 30 27 61 69 57 65 78 63 70 171 177 180 183 186 185 178 172 171 169 165 161 155 148 138 122 95 55 17
161 157 154 148 143 139 140 135 126 101 107 117 92 63 35 21 28 33 36 42 44 51 49 42 32 314 218 206 205 205 202 199 197 195 193 187 179 173 168 161 143 8 340
146 144 142 137 136 141 142 137 125 108 84 87 104 64 29 37 46 31 24 43 41 36 43 38 26 13 339 292 260 240 232 227 220 216 210 203 194 190 191 198 214 255 292
119 135 128 126 126 127 120 125 123 134 101 68 126 128 107 354 27 29 29 47 41 38 41 34 24 16 352 337 309 282 264 254 244 236 227 217 214 211 214 226 243 262 275
92 99 110 111 109 111 113 110 122 137 133 83 52 136 167 208 182 22 28 33 33 37 25 17 22 6 347 336 317 303 289 279 263 254 245 237 234 236 237 246 255 264 272
75 82 88 91 87 83 86 81 75 94 121 120 75 45 53 100 147 146 22 16 26 34 23 19 16 13 5 350 333 323 311 305 287 274 267 265 262 260 260 261 265 271 275
64 73 76 79 76 70 68 66 65 65 69 90 97 91 71 52 52 114 140 4 15 18 22 20 21 19 14 5 343 336 329 331 321 300 286 282 280 278 276 275 275 276 278
62 68 77 77 75 73 71 72 70 68 67 75 72 66 75 80 64 73 95 41 345 343 6 19 26 25 22 15 8 7 4 359 347 328 312 300 290 286 284 283 282 282 283
66 61 73 74 72 70 69 69 70 68 67 75 74 70 65 59 59 73 90 75 323 324 338 5 11 11 15 5 354 353 349 341 330 318 309 301 296 292 289 288 286 286 286
76 72 73 72 69 68 68 67 68 66 66 68 69 67 65 53 48 58 93 122 322 311 309 308 326 346 353 342 331 333 326 323 316 308 301 296 294 292 289 288 287 287 286
80 72 71 71 67 65 65 64 62 57 62 60 61 61 59 47 44 44 55 100 174 268 286 303 307 316 329 319 318 319 313 309 307 303 301 298 295 292 290 288 287 285 283
76 75 72 69 66 63 62 64 60 53 60 53 54 58 52 46 42 40 43 47 120 213 264 287 284 299 311 312 314 317 305 305 304 301 299 296 293 291 288 286 284 284 284
76 76 76 73 68 62 57 60 57 50 53 47 40 45 38 29 32 31 43 60 171 202 253 281 277 291 295 298 308 307 298 291 287 290 293 292 292 290 288 287 288 288 287
74 76 75 72 68 61 54 54 50 44 43 36 24 20 10 5 1 356 353 325 258 229 239 280 292 296 289 297 301 303 302 299 292 290 291 293 294 293 294 294 294 291 288
76 73 73 72 67 61 54 49 46 39 33 23 12 3 347 348 345 335 326 312 290 276 241 263 286 288 288 297 305 303 302 299 297 295 293 292 295 298 300 300 295 291 286
77 74 71 69 64 57 49 41 38 33 22 11 3 354 341 327 315 312 312 308 301 298 284 279 288 293 291 296 294 302 309 310 309 304 295 295 296 300 299 299 297 295 293
76 74 70 61 54 51 42 38 30 26 15 4 358 353 342 345 354 345 336 318 307 298 298 296 296 296 300 306 306 300 301 308 304 290 299 301 302 299 299 298 298 298 298
61 61 57 54 44 39 33 35 33 22 10 2 352 346 341 356 358 355 345 334 318 303 297 289 289 292 296 297 295 295 299 305 306 297 300 303 302 297 299 295 296 298 299
53 49 41 42 32 15 21 22 24 22 4 353 344 339 338 341 345 336 330 327 321 310 292 275 276 280 287 290 294 296 293 291 289 297 299 297 302 303 305 302 306 304 302
39 24 20 21 17 8 13 15 14 13 355 344 336 327 323 324 330 332 324 318 314 309 298 282 264 275 279 284 279 279 288 292 286 282 264 282 300 308 311 309 304 307 312
25 16 18 22 22 7 14 15 14 355 345 339 333 330 325 319 318 326 323 317 315 313 312 302 287 284 284 286 284 278 290 298 309 309 274 272 296 310 306 298 309 314 316
35 34 40 34 34 21 12 13 12 354 340 333 328 326 326 321 319 323 318 308 307 310 321 324 320 317 311 310 308 270 277 295 305 303 301 299 296 312 306 301 314 321 324